Location: Limerick
(52.6650°N, 8.6230°W)
Time: 19:48:37
(UTC+01:00)

ISS - Pass Details

Date: 22 July 2017
Orbit: 400 x 408 km, 51.6° (Epoch: 21 July)

Event Time Altitude Azimuth Distance (km) Brightness Sun altitude
Exits shadow 01:43:19 29° 245° (WSW) 768 -2.7 -17.1°
Maximum altitude 01:44:47 67° 170° (S) 441 -4.0 -17.1°
Drops below altitude 10° 01:48:01 10° 88° (E) 1,457 -1.0 -17.1°
Sets 01:50:07 0° 85° (E) 2,318 0.1 -17.0°
